This is the latest recevied weather packets stored in our database for station/object KB1ZFK. If no packets are shown the sender has not sent any weather packets the latest 10 day(s).
| Time | Temp. | Humidity | Pressure | Rain* | Wind** | Luminosity | Snow |
|---|---|---|---|---|---|---|---|
| 1777939145 | 17.78° C | 43% | 1006.8 hPa | 0 mm | - | 0 W/m² | - |
| 1777938842 | 17.78° C | 42% | 1006.8 hPa | 0 mm | - | 0 W/m² | - |
| 1777938537 | 17.78° C | 42% | 1006.8 hPa | 0 mm | - | 0 W/m² | - |
| 1777938236 | 18.33° C | 42% | 1006.6 hPa | 0 mm | - | 2 W/m² | - |
| 1777937932 | 18.89° C | 40% | 1006.6 hPa | 0 mm | - | 4 W/m² | - |
| 1777937628 | 18.33° C | 41% | 1006.4 hPa | 0 mm | - | 5 W/m² | - |
| 1777937324 | 18.33° C | 40% | 1006.5 hPa | 0 mm | - | 6 W/m² | - |
| 1777937022 | 18.89° C | 41% | 1006.5 hPa | 0 mm | - | 7 W/m² | - |
| 1777936718 | 19.44° C | 39% | 1006.3 hPa | 0 mm | - | 10 W/m² | - |
| 1777936415 | 18.89° C | 40% | 1006.3 hPa | 0 mm | - | 12 W/m² | - |
| 1777936111 | 19.44° C | 39% | 1006.3 hPa | 0 mm | - | 16 W/m² | - |
| 1777935809 | 19.44° C | 39% | 1006.1 hPa | 0 mm | - | 19 W/m² | - |
| 1777935508 | 19.44° C | 39% | 1006.2 hPa | 0 mm | - | 22 W/m² | - |
| 1777935203 | 19.44° C | 39% | 1005.9 hPa | 0 mm | - | 21 W/m² | - |
| 1777934901 | 19.44° C | 38% | 1005.8 hPa | 0 mm | - | 23 W/m² | - |
| 1777934598 | 20° C | 39% | 1005.9 hPa | 0 mm | - | 27 W/m² | - |
| 1777934295 | 20° C | 38% | 1005.7 hPa | 0 mm | - | 28 W/m² | - |
| 1777933990 | 20° C | 39% | 1005.8 hPa | 0 mm | - | 41 W/m² | - |
| 1777933687 | 20° C | 38% | 1005.5 hPa | 0 mm | - | 36 W/m² | - |
| 1777933384 | 20° C | 37% | 1005.7 hPa | 0 mm | - | 37 W/m² | - |
| 1777933082 | 20° C | 37% | 1005.7 hPa | 0 mm | - | 38 W/m² | - |
| 1777932779 | 20° C | 37% | 1005.7 hPa | 0 mm | - | 56 W/m² | - |
| 1777932475 | 20° C | 37% | 1005.7 hPa | 0 mm | - | 55 W/m² | - |
| 1777932172 | 20° C | 36% | 1005.9 hPa | 0 mm | - | 80 W/m² | - |
| 1777931870 | 20.56° C | 36% | 1005.9 hPa | 0 mm | - | 111 W/m² | - |
* Rain latest hour (hover to see other rain measurements)
** Current wind speed in m/s (hover to see current wind gust speed)